Content
SEND FEEDBACK

Daily
Averages
Monthly
Summary
Mexico

LEONA VICARIO, QUINTANA ROO


Home > North America > Mexico > Quintana Roo
Elevation: 26 feet     Latitude: 20 59N     Longitude: 087 12W

WEATHER
 
SELECT A DAY
Number of Records: 167,808;   Date Range: 1/1/95 - 12/20/14
 
SHARE

PRINT THIS DATA

[ ← Previous Day ]
WEATHER ALMANAC - OCTOBER 15, 2013
[ Next Day → ]
[ °C ]   °F
Weather ElementAverageHighLow
Temperature77.1 °F86 °F (1:40 pm)69.8 °F (2:43 am)
Dewpoint71.4 °F73.4 °F (8:55 am)68 °F (3:46 am)
Humidity83.5 %100 % (2:43 am)62 % (1:40 pm)
Barometer29.92 in29.97 in (9:51 am)29.88 in (4:46 pm)
Wind Speed3.5 mph9.2 mph (2:45 pm)
Weather ElementAverage
Visibility7 mi
Wind DirectionSSE (143.9 °)

Weather ElementTotal
Precipitation---
Cooling Degree Days12.9 (Base 65)
Growing Degree Days27.9 (Base 50)
Averaged from 23 records on October 15, 2013
WEATHER CONDITIONS BREAKOUT
WIND DIRECTION BREAKOUT
WEATHER BY HOUR - OCTOBER 15, 2013
[ °C ]   °F
Local TimeTemperatureDewpointHumidityBarometerVisibilityWind DirectionWind SpeedGust SpeedPrecipitationEventsConditions
1:44 AM71.6 °F69.8 °F94 %29.92 in7.0 miCalmPartly Cloudy
2:43 AM69.8 °F69.8 °F100 %29.91 in7.0 miCalmPartly Cloudy
3:46 AM69.8 °F68.0 °F94 %29.89 in7.0 miCalmScattered Clouds
4:45 AM69.8 °F68.0 °F94 %29.90 in7.0 miCalmScattered Clouds
5:44 AM69.8 °F68.0 °F94 %29.91 in7.0 miNNW (330°)5.8 mphPartly Cloudy
6:43 AM69.8 °F69.8 °F100 %29.92 in7.0 miNNW (330°)5.8 mphScattered Clouds
7:40 AM73.4 °F69.8 °F88 %29.93 in7.0 miNNW (330°)5.8 mphScattered Clouds
8:55 AM80.6 °F73.4 °F79 %29.95 in7.0 miNNW (330°)5.8 mphScattered Clouds
9:51 AM82.4 °F73.4 °F74 %29.97 in7.0 miNNW (340°)4.6 mphScattered Clouds
10:42 AM84.2 °F73.4 °F70 %29.96 in7.0 miNNE (30°)4.6 mphMostly Cloudy
11:43 AM82.4 °F73.4 °F74 %29.94 in7.0 miNNW (340°)2.3 mphMostly Cloudy
12:47 PM84.2 °F73.4 °F70 %29.93 in7.0 miCalmMostly Cloudy
1:40 PM86.0 °F71.6 °F62 %29.90 in7.0 miEast (90°)4.6 mphMostly Cloudy
2:45 PM82.4 °F73.4 °F74 %29.89 in7.0 miEast (100°)9.2 mphScattered Clouds
3:45 PM82.4 °F73.4 °F74 %29.89 in7.0 miEast (100°)8.1 mphMostly Cloudy
4:46 PM82.4 °F73.4 °F74 %29.88 in7.0 miESE (110°)5.8 mphScattered Clouds
5:42 PM82.4 °F73.4 °F74 %29.89 in7.0 miEast (100°)4.6 mphScattered Clouds
6:52 PM78.8 °F71.6 °F78 %29.89 in7.0 miENE (60°)2.3 mphScattered Clouds
7:41 PM77.0 °F71.6 °F83 %29.93 in7.0 miENE (60°)2.3 mphScattered Clouds
8:40 PM75.2 °F71.6 °F89 %29.94 in7.0 miENE (60°)2.3 mphPartly Cloudy
9:47 PM73.4 °F71.6 °F94 %29.95 in7.0 miCalmPartly Cloudy
10:50 PM73.4 °F71.6 °F94 %29.96 in7.0 miNW (320°)3.5 mphPartly Cloudy
11:48 PM71.6 °F69.8 °F94 %29.96 in7.0 miWest (280°)2.3 mphClear
Hourly data recorded from MMUN, located miles away from Leona Vicario, Quintana Roo







STORIES FROM OUR PARTNERS